KLM467 LPHR-LPPT

Flight info

Callsign KLM467
Flight time 2h 16m
Altitude 37000
Route LM DCT BAVAS DCT LENSI T25 GUNTI/N0456F370 DCT LAZET
Aircraft B739/M-SDE2E3FGHIRWXY/LB1

Departure

Time 2026-04-26 17:57
Airport Horta Airport (LPHR)

Arrival

Time 2026-04-26 20:13
Airport Lisbon Humberto Delgado Airport (LPPT)
Time Latitude Longitude Altitude Speed Heading
2026-04-26 17:49 38.52097 -28.71561 93 ft 0 kts 167°
2026-04-26 17:51 38.52106 -28.71563 93 ft 4 kts 186°
2026-04-26 17:52 38.52114 -28.71557 96 ft 4 kts 276°
2026-04-26 17:52 38.52111 -28.71524 93 ft 3 kts 271°
2026-04-26 17:52 38.52111 -28.71521 94 ft 1 kts 270°
2026-04-26 17:54 38.52111 -28.71525 94 ft 3 kts 270°
2026-04-26 17:54 38.52079 -28.71538 94 ft 9 kts 137°
2026-04-26 17:54 38.52029 -28.71504 96 ft 9 kts 196°
2026-04-26 17:54 38.51993 -28.71587 99 ft 17 kts 263°
2026-04-26 17:55 38.51990 -28.71824 90 ft 36 kts 269°
2026-04-26 17:55 38.51985 -28.72207 71 ft 46 kts 269°
2026-04-26 17:55 38.52026 -28.72482 63 ft 24 kts 286°
2026-04-26 17:55 38.51983 -28.72503 67 ft 10 kts 100°
2026-04-26 17:56 38.51987 -28.72080 85 ft 91 kts 89°
2026-04-26 17:56 38.51947 -28.69373 561 ft 194 kts 94°
2026-04-26 17:57 38.52076 -28.65574 2327 ft 221 kts 86°
2026-04-26 17:57 38.52335 -28.63612 3057 ft 233 kts 82°
2026-04-26 17:57 38.52687 -28.61404 2744 ft 283 kts 81°
2026-04-26 17:57 38.53092 -28.58626 2245 ft 338 kts 83°
2026-04-26 17:58 38.56081 -28.50871 2759 ft 321 kts 35°
2026-04-26 17:59 38.59409 -28.47310 4493 ft 306 kts 49°
2026-04-26 17:59 38.60781 -28.45269 5634 ft 299 kts 54°
2026-04-26 17:59 38.62017 -28.43160 6753 ft 293 kts 57°
2026-04-26 17:59 38.63181 -28.41016 7642 ft 293 kts 58°
2026-04-26 18:00 38.64309 -28.38876 8514 ft 294 kts 58°
2026-04-26 18:00 38.65465 -28.36668 9380 ft 296 kts 58°
2026-04-26 18:00 38.66593 -28.34491 10215 ft 298 kts 59°
2026-04-26 18:00 38.67748 -28.32227 10700 ft 314 kts 59°
2026-04-26 18:01 38.68986 -28.29786 10876 ft 339 kts 59°
2026-04-26 18:01 38.70318 -28.27160 11062 ft 361 kts 59°
2026-04-26 18:01 38.71723 -28.24395 11275 ft 380 kts 58°
2026-04-26 18:01 38.73185 -28.21523 11780 ft 388 kts 58°
2026-04-26 18:02 38.74659 -28.18626 12466 ft 389 kts 58°
2026-04-26 18:02 38.75162 -28.17638 12703 ft 390 kts 58°
2026-04-26 18:02 38.77634 -28.12770 13745 ft 396 kts 58°
2026-04-26 18:02 38.79141 -28.09796 14318 ft 399 kts 59°
2026-04-26 18:03 38.80410 -28.06634 14869 ft 400 kts 72°
2026-04-26 18:03 38.81088 -28.03192 15487 ft 399 kts 84°
2026-04-26 18:03 38.81214 -27.99646 16016 ft 400 kts 93°
2026-04-26 18:03 38.81107 -27.96053 16534 ft 404 kts 94°
2026-04-26 18:04 38.80978 -27.92438 17049 ft 408 kts 94°
2026-04-26 18:04 38.80847 -27.88780 17571 ft 412 kts 94°
2026-04-26 18:04 38.80723 -27.85103 18088 ft 415 kts 93°
2026-04-26 18:05 38.80495 -27.77642 19029 ft 422 kts 93°
2026-04-26 18:05 38.80385 -27.73869 19539 ft 423 kts 94°
2026-04-26 18:05 38.80275 -27.70089 20020 ft 426 kts 93°
2026-04-26 18:05 38.80165 -27.66287 20459 ft 430 kts 93°
2026-04-26 18:06 38.80053 -27.62446 20880 ft 433 kts 93°
2026-04-26 18:06 38.79938 -27.58570 21328 ft 436 kts 93°
2026-04-26 18:06 38.79821 -27.54676 21762 ft 439 kts 94°
2026-04-26 18:06 38.79701 -27.50746 22100 ft 444 kts 94°
2026-04-26 18:07 38.79579 -27.46771 22577 ft 445 kts 93°
2026-04-26 18:07 38.79462 -27.42982 23092 ft 446 kts 93°
2026-04-26 18:07 38.79345 -27.39259 23450 ft 449 kts 92°
2026-04-26 18:07 38.79262 -27.36661 23676 ft 452 kts 92°
2026-04-26 18:08 38.79089 -27.31242 24096 ft 457 kts 92°
2026-04-26 18:08 38.78958 -27.27202 24470 ft 458 kts 92°
2026-04-26 18:08 38.78825 -27.23110 24779 ft 462 kts 92°
2026-04-26 18:08 38.78688 -27.18963 25053 ft 466 kts 93°
2026-04-26 18:09 38.78550 -27.14819 25554 ft 465 kts 92°
2026-04-26 18:09 38.78421 -27.10656 25781 ft 471 kts 91°
2026-04-26 18:09 38.78552 -27.06460 26064 ft 473 kts 85°
2026-04-26 18:09 38.78866 -27.02263 26456 ft 474 kts 83°
2026-04-26 18:10 38.79229 -26.98036 26714 ft 477 kts 83°
2026-04-26 18:10 38.79600 -26.93815 27089 ft 478 kts 83°
2026-04-26 18:10 38.79966 -26.89538 27293 ft 483 kts 83°
2026-04-26 18:10 38.80316 -26.85264 27766 ft 481 kts 83°
2026-04-26 18:11 38.80651 -26.81004 28144 ft 481 kts 83°
2026-04-26 18:11 38.80978 -26.76725 28540 ft 482 kts 83°
2026-04-26 18:11 38.81295 -26.72494 28928 ft 482 kts 83°
2026-04-26 18:11 38.81616 -26.68165 29385 ft 481 kts 83°
2026-04-26 18:12 38.81930 -26.63901 29870 ft 480 kts 83°
2026-04-26 18:12 38.82242 -26.59641 30311 ft 479 kts 83°
2026-04-26 18:12 38.82448 -26.56824 30519 ft 480 kts 83°
2026-04-26 18:12 38.82859 -26.51174 30991 ft 479 kts 83°
2026-04-26 18:13 38.83167 -26.46923 31363 ft 478 kts 83°
2026-04-26 18:13 38.83475 -26.42661 31677 ft 479 kts 82°
2026-04-26 18:13 38.83781 -26.38400 31970 ft 480 kts 82°
2026-04-26 18:13 38.83885 -26.36960 32096 ft 480 kts 82°
2026-04-26 18:14 38.84268 -26.31582 32514 ft 479 kts 82°
2026-04-26 18:14 38.84510 -26.28171 32780 ft 479 kts 82°
2026-04-26 18:14 38.84807 -26.23953 33115 ft 479 kts 82°
2026-04-26 18:14 38.85104 -26.19718 33561 ft 476 kts 82°
2026-04-26 18:15 38.85399 -26.15488 33900 ft 475 kts 82°
2026-04-26 18:15 38.85693 -26.11262 34139 ft 477 kts 82°
2026-04-26 18:15 38.85987 -26.07017 34360 ft 478 kts 82°
2026-04-26 18:15 38.86278 -26.02776 34649 ft 477 kts 82°
2026-04-26 18:16 38.86567 -25.98544 34937 ft 476 kts 82°
2026-04-26 18:16 38.87139 -25.90100 35512 ft 473 kts 81°
2026-04-26 18:16 38.87422 -25.85892 35838 ft 471 kts 81°
2026-04-26 18:17 38.87702 -25.81707 36038 ft 472 kts 81°
2026-04-26 18:17 38.87983 -25.77489 36191 ft 474 kts 81°
2026-04-26 18:17 38.88262 -25.73286 36410 ft 473 kts 81°
2026-04-26 18:17 38.88539 -25.69077 36673 ft 472 kts 81°
2026-04-26 18:18 38.88813 -25.64883 36912 ft 472 kts 81°
2026-04-26 18:18 38.89083 -25.60732 37176 ft 470 kts 81°
2026-04-26 18:18 38.89625 -25.52336 37230 ft 471 kts 81°
2026-04-26 18:19 38.90158 -25.43975 37225 ft 468 kts 81°
2026-04-26 18:19 38.90682 -25.35666 37223 ft 466 kts 81°
2026-04-26 18:20 38.91198 -25.27396 37229 ft 464 kts 81°
2026-04-26 18:20 38.91623 -25.20522 37230 ft 464 kts 82°
2026-04-26 18:21 38.92213 -25.10854 37231 ft 465 kts 82°
2026-04-26 18:21 38.92713 -25.02561 37237 ft 467 kts 82°
2026-04-26 18:22 38.93209 -24.94236 37237 ft 469 kts 82°
2026-04-26 18:22 38.93700 -24.85884 37234 ft 470 kts 82°
2026-04-26 18:23 38.94187 -24.77501 37231 ft 470 kts 82°
2026-04-26 18:23 38.94664 -24.69181 37251 ft 470 kts 82°
2026-04-26 18:24 38.95138 -24.60805 37242 ft 469 kts 82°
2026-04-26 18:24 38.95604 -24.52452 37240 ft 468 kts 82°
2026-04-26 18:25 38.96064 -24.44132 37234 ft 466 kts 82°
2026-04-26 18:25 38.96516 -24.35838 37263 ft 465 kts 82°
2026-04-26 18:26 38.96961 -24.27563 37246 ft 464 kts 83°
2026-04-26 18:26 38.97399 -24.19302 37237 ft 462 kts 83°
2026-04-26 18:27 38.97829 -24.11078 37233 ft 461 kts 82°
2026-04-26 18:27 38.98245 -24.03034 37267 ft 460 kts 83°
2026-04-26 18:28 38.98639 -23.95306 37242 ft 460 kts 83°
2026-04-26 18:28 38.99051 -23.87115 37248 ft 459 kts 83°
2026-04-26 18:29 38.99457 -23.78922 37245 ft 459 kts 83°
2026-04-26 18:29 38.99859 -23.70724 37260 ft 460 kts 83°
2026-04-26 18:30 39.00174 -23.62560 37247 ft 461 kts 85°
2026-04-26 18:30 39.00271 -23.54302 37248 ft 462 kts 86°
2026-04-26 18:31 39.00341 -23.46045 37250 ft 462 kts 86°
2026-04-26 18:31 39.00432 -23.37771 37259 ft 462 kts 86°
2026-04-26 18:32 39.00534 -23.29508 37247 ft 462 kts 86°
2026-04-26 18:32 39.00635 -23.21247 37246 ft 462 kts 86°
2026-04-26 18:33 39.00730 -23.12999 37252 ft 461 kts 86°
2026-04-26 18:33 39.00818 -23.04762 37259 ft 460 kts 87°
2026-04-26 18:34 39.00901 -22.96533 37244 ft 460 kts 87°
2026-04-26 18:34 39.00977 -22.88320 37253 ft 459 kts 87°
2026-04-26 18:35 39.01047 -22.80111 37255 ft 458 kts 87°
2026-04-26 18:35 39.01111 -22.71982 37252 ft 458 kts 88°
2026-04-26 18:36 39.01170 -22.63785 37249 ft 458 kts 88°
2026-04-26 18:36 39.01223 -22.55611 37253 ft 458 kts 88°
2026-04-26 18:37 39.01270 -22.47420 37248 ft 457 kts 88°
2026-04-26 18:37 39.01312 -22.39236 37251 ft 458 kts 88°
2026-04-26 18:38 39.01348 -22.31095 37251 ft 458 kts 88°
2026-04-26 18:38 39.01378 -22.22917 37250 ft 458 kts 88°
2026-04-26 18:39 39.01402 -22.14717 37250 ft 458 kts 88°
2026-04-26 18:39 39.01421 -22.06538 37251 ft 458 kts 88°
2026-04-26 18:40 39.01434 -21.98328 37251 ft 459 kts 88°
2026-04-26 18:40 39.01441 -21.90121 37249 ft 459 kts 88°
2026-04-26 18:41 39.01442 -21.81902 37251 ft 459 kts 88°
2026-04-26 18:41 39.01438 -21.73682 37249 ft 460 kts 89°
2026-04-26 18:42 39.01428 -21.65456 37252 ft 460 kts 89°
2026-04-26 18:42 39.01412 -21.57241 37250 ft 460 kts 89°
2026-04-26 18:43 39.01391 -21.49013 37250 ft 460 kts 89°
2026-04-26 18:43 39.01363 -21.40787 37250 ft 460 kts 89°
2026-04-26 18:44 39.01330 -21.32568 37251 ft 460 kts 89°
2026-04-26 18:44 39.01291 -21.24340 37249 ft 460 kts 89°
2026-04-26 18:45 39.01247 -21.16157 37251 ft 460 kts 89°
2026-04-26 18:45 39.01196 -21.07947 37250 ft 460 kts 90°
2026-04-26 18:46 39.01140 -20.99712 37251 ft 460 kts 90°
2026-04-26 18:46 39.01078 -20.91496 37250 ft 460 kts 90°
2026-04-26 18:47 39.01010 -20.83254 37250 ft 460 kts 90°
2026-04-26 18:47 39.00937 -20.75047 37249 ft 459 kts 91°
2026-04-26 18:48 39.00862 -20.67301 37251 ft 459 kts 91°
2026-04-26 18:48 39.00780 -20.59398 37249 ft 459 kts 91°
2026-04-26 18:49 39.00690 -20.51182 37249 ft 459 kts 91°
2026-04-26 18:49 39.00595 -20.42974 37247 ft 458 kts 91°
2026-04-26 18:50 39.00493 -20.34788 37249 ft 458 kts 91°
2026-04-26 18:50 39.00386 -20.26597 37250 ft 458 kts 91°
2026-04-26 18:51 39.00273 -20.18392 37249 ft 458 kts 91°
2026-04-26 18:51 39.00160 -20.10521 37248 ft 458 kts 91°
2026-04-26 18:52 39.00037 -20.02332 37252 ft 458 kts 91°
2026-04-26 18:52 39.00014 -19.94130 37250 ft 459 kts 89°
2026-04-26 18:53 39.00217 -19.85936 37252 ft 459 kts 88°
2026-04-26 18:53 39.00431 -19.77725 37251 ft 459 kts 89°
2026-04-26 18:54 39.00595 -19.70262 37251 ft 459 kts 89°
2026-04-26 18:54 39.00750 -19.62059 37250 ft 459 kts 89°
2026-04-26 18:55 39.00895 -19.53850 37248 ft 459 kts 89°
2026-04-26 18:55 39.01033 -19.45647 37246 ft 459 kts 89°
2026-04-26 18:56 39.01167 -19.37430 37247 ft 459 kts 89°
2026-04-26 18:56 39.01296 -19.29230 37247 ft 459 kts 89°
2026-04-26 18:57 39.01378 -19.23740 37249 ft 459 kts 89°
2026-04-26 18:57 39.01535 -19.12831 37248 ft 458 kts 89°
2026-04-26 18:58 39.01646 -19.04641 37248 ft 458 kts 90°
2026-04-26 18:58 39.01751 -18.96500 37247 ft 457 kts 90°
2026-04-26 18:59 39.01850 -18.88329 37247 ft 457 kts 90°
2026-04-26 18:59 39.01944 -18.80161 37247 ft 457 kts 90°
2026-04-26 19:00 39.02032 -18.71987 37249 ft 457 kts 90°
2026-04-26 19:00 39.02101 -18.65152 37251 ft 457 kts 90°
2026-04-26 19:01 39.02178 -18.56991 37249 ft 457 kts 90°
2026-04-26 19:01 39.02250 -18.48869 37247 ft 457 kts 90°
2026-04-26 19:02 39.02316 -18.40653 37246 ft 457 kts 90°
2026-04-26 19:02 39.02367 -18.33869 37244 ft 457 kts 90°
2026-04-26 19:03 39.02431 -18.24358 37244 ft 457 kts 90°
2026-04-26 19:03 39.02480 -18.16193 37246 ft 457 kts 90°
2026-04-26 19:04 39.02523 -18.08048 37246 ft 456 kts 90°
2026-04-26 19:04 39.02561 -17.99875 37243 ft 456 kts 90°
2026-04-26 19:05 39.02606 -17.87626 37246 ft 456 kts 90°
2026-04-26 19:06 39.02630 -17.79481 37245 ft 456 kts 90°
2026-04-26 19:06 39.02647 -17.71367 37238 ft 456 kts 90°
2026-04-26 19:07 39.02659 -17.63208 37245 ft 456 kts 90°
2026-04-26 19:07 39.02666 -17.55045 37243 ft 456 kts 91°
2026-04-26 19:08 39.02666 -17.46900 37241 ft 456 kts 91°
2026-04-26 19:08 39.02661 -17.38749 37239 ft 456 kts 91°
2026-04-26 19:09 39.02651 -17.30591 37242 ft 456 kts 91°
2026-04-26 19:09 39.02635 -17.22485 37238 ft 456 kts 91°
2026-04-26 19:10 39.02613 -17.14329 37241 ft 456 kts 91°
2026-04-26 19:10 39.02584 -17.06171 37244 ft 456 kts 91°
2026-04-26 19:11 39.02551 -16.97995 37241 ft 457 kts 91°
2026-04-26 19:11 39.02513 -16.89824 37237 ft 457 kts 92°
2026-04-26 19:12 39.02468 -16.81647 37234 ft 457 kts 91°
2026-04-26 19:12 39.02418 -16.73466 37233 ft 457 kts 91°
2026-04-26 19:13 39.02362 -16.65292 37231 ft 457 kts 92°
2026-04-26 19:13 39.02297 -16.57112 37240 ft 457 kts 91°
2026-04-26 19:14 39.02230 -16.48927 37238 ft 457 kts 92°
2026-04-26 19:14 39.02158 -16.40792 37232 ft 458 kts 91°
2026-04-26 19:15 39.02078 -16.32618 37226 ft 458 kts 91°
2026-04-26 19:15 39.01993 -16.24425 37239 ft 458 kts 92°
2026-04-26 19:16 39.01902 -16.16221 37245 ft 458 kts 91°
2026-04-26 19:16 39.01805 -16.08015 37235 ft 459 kts 92°
2026-04-26 19:17 39.01704 -15.99804 37229 ft 460 kts 91°
2026-04-26 19:17 39.01597 -15.91594 37225 ft 460 kts 91°
2026-04-26 19:18 39.01482 -15.83342 37233 ft 459 kts 92°
2026-04-26 19:18 39.01360 -15.75123 37232 ft 459 kts 92°
2026-04-26 19:19 39.01234 -15.66913 37234 ft 460 kts 92°
2026-04-26 19:19 39.01104 -15.58745 37214 ft 460 kts 92°
2026-04-26 19:20 39.00967 -15.50524 37217 ft 460 kts 92°
2026-04-26 19:20 39.00824 -15.42290 37225 ft 460 kts 91°
2026-04-26 19:21 39.00675 -15.34055 37227 ft 460 kts 91°
2026-04-26 19:21 39.00521 -15.25823 37213 ft 460 kts 91°
2026-04-26 19:22 39.00368 -15.17873 37206 ft 459 kts 92°
2026-04-26 19:22 39.00211 -15.10145 37212 ft 459 kts 92°
2026-04-26 19:23 39.00042 -15.01997 37219 ft 458 kts 92°
2026-04-26 19:23 38.99947 -14.94280 37215 ft 458 kts 90°
2026-04-26 19:24 38.99966 -14.86086 37207 ft 458 kts 91°
2026-04-26 19:24 38.99988 -14.73800 37210 ft 458 kts 91°
2026-04-26 19:25 38.99982 -14.67005 37206 ft 458 kts 91°
2026-04-26 19:25 38.99960 -14.57439 37212 ft 458 kts 91°
2026-04-26 19:26 38.99935 -14.49247 37204 ft 458 kts 91°
2026-04-26 19:26 38.99905 -14.41059 37207 ft 458 kts 92°
2026-04-26 19:27 38.99868 -14.32856 37206 ft 459 kts 91°
2026-04-26 19:27 38.99824 -14.24646 37202 ft 459 kts 90°
2026-04-26 19:28 38.99775 -14.16475 37191 ft 460 kts 92°
2026-04-26 19:28 38.99724 -14.08238 37197 ft 461 kts 92°
2026-04-26 19:29 38.99665 -13.99982 37201 ft 462 kts 90°
2026-04-26 19:29 38.99598 -13.91702 37197 ft 463 kts 91°
2026-04-26 19:30 38.99524 -13.83410 37192 ft 464 kts 92°
2026-04-26 19:30 38.99460 -13.76519 37183 ft 465 kts 93°
2026-04-26 19:31 38.99364 -13.66802 37181 ft 465 kts 92°
2026-04-26 19:31 38.99276 -13.58558 37187 ft 464 kts 94°
2026-04-26 19:32 38.99182 -13.50250 37188 ft 464 kts 92°
2026-04-26 19:32 38.99081 -13.41955 37182 ft 464 kts 91°
2026-04-26 19:33 38.98973 -13.33661 37180 ft 465 kts 94°
2026-04-26 19:33 38.98859 -13.25349 37172 ft 465 kts 92°
2026-04-26 19:34 38.98737 -13.17036 37177 ft 466 kts 92°
2026-04-26 19:34 38.98612 -13.08747 37178 ft 466 kts 93°
2026-04-26 19:35 38.98479 -13.00389 37177 ft 468 kts 93°
2026-04-26 19:35 38.98343 -12.92032 37181 ft 468 kts 92°
2026-04-26 19:36 38.98247 -12.86418 37166 ft 469 kts 94°
2026-04-26 19:36 38.98051 -12.75269 37159 ft 469 kts 93°
2026-04-26 19:37 38.97897 -12.66886 37167 ft 469 kts 92°
2026-04-26 19:37 38.97731 -12.58482 37162 ft 470 kts 92°
2026-04-26 19:38 38.97562 -12.50081 37157 ft 470 kts 94°
2026-04-26 19:38 38.97388 -12.41705 37149 ft 471 kts 92°
2026-04-26 19:39 38.97210 -12.33348 37139 ft 471 kts 93°
2026-04-26 19:39 38.97026 -12.24974 37152 ft 471 kts 94°
2026-04-26 19:40 38.96832 -12.16540 37153 ft 471 kts 93°
2026-04-26 19:40 38.96635 -12.08166 37140 ft 472 kts 92°
2026-04-26 19:41 38.96428 -11.99696 37133 ft 472 kts 93°
2026-04-26 19:41 38.96288 -11.94112 37141 ft 471 kts 92°
2026-04-26 19:42 38.95999 -11.82900 37133 ft 471 kts 92°
2026-04-26 19:42 38.95777 -11.74485 37148 ft 470 kts 94°
2026-04-26 19:43 38.95548 -11.66098 37146 ft 470 kts 93°
2026-04-26 19:43 38.95313 -11.57719 37124 ft 469 kts 94°
2026-04-26 19:44 38.95075 -11.49381 37117 ft 469 kts 95°
2026-04-26 19:44 38.94829 -11.41009 37131 ft 469 kts 94°
2026-04-26 19:45 38.94576 -11.32601 36668 ft 477 kts 94°
2026-04-26 19:45 38.94444 -11.28337 36048 ft 476 kts 94°
2026-04-26 19:45 38.94312 -11.24084 35194 ft 478 kts 93°
2026-04-26 19:46 38.94178 -11.19813 34373 ft 479 kts 94°
2026-04-26 19:46 38.94042 -11.15530 33406 ft 481 kts 94°
2026-04-26 19:46 38.93905 -11.11237 32482 ft 482 kts 93°
2026-04-26 19:46 38.93813 -11.08381 31863 ft 482 kts 94°
2026-04-26 19:47 38.93673 -11.04067 30926 ft 484 kts 94°
2026-04-26 19:47 38.93575 -11.01142 30267 ft 485 kts 94°
2026-04-26 19:47 38.93381 -10.95397 28721 ft 488 kts 94°
2026-04-26 19:47 38.93235 -10.91050 27629 ft 487 kts 93°
2026-04-26 19:48 38.93087 -10.86698 26704 ft 484 kts 93°
2026-04-26 19:48 38.92940 -10.82421 25944 ft 477 kts 93°
2026-04-26 19:48 38.92793 -10.78213 25633 ft 461 kts 92°
2026-04-26 19:48 38.92652 -10.74185 25419 ft 444 kts 93°
2026-04-26 19:49 38.92514 -10.70302 25231 ft 428 kts 93°
2026-04-26 19:49 38.92380 -10.66548 25016 ft 414 kts 93°
2026-04-26 19:49 38.92253 -10.62880 24597 ft 408 kts 92°
2026-04-26 19:49 38.92131 -10.59275 24209 ft 401 kts 92°
2026-04-26 19:50 38.92013 -10.55722 23808 ft 396 kts 93°
2026-04-26 19:50 38.91894 -10.52208 23357 ft 392 kts 93°
2026-04-26 19:50 38.91776 -10.48730 22924 ft 388 kts 92°
2026-04-26 19:50 38.91657 -10.45280 22519 ft 385 kts 92°
2026-04-26 19:51 38.91539 -10.41883 22130 ft 386 kts 92°
2026-04-26 19:51 38.91417 -10.38433 21740 ft 388 kts 92°
2026-04-26 19:51 38.91295 -10.34981 21342 ft 385 kts 92°
2026-04-26 19:51 38.91172 -10.31565 20950 ft 381 kts 92°
2026-04-26 19:52 38.91050 -10.28179 20568 ft 378 kts 92°
2026-04-26 19:52 38.90928 -10.24811 20185 ft 375 kts 92°
2026-04-26 19:52 38.90806 -10.21473 19807 ft 373 kts 92°
2026-04-26 19:52 38.90684 -10.18169 19435 ft 371 kts 92°
2026-04-26 19:53 38.90561 -10.14858 19070 ft 368 kts 92°
2026-04-26 19:53 38.90439 -10.11584 18697 ft 366 kts 92°
2026-04-26 19:53 38.90317 -10.08325 18315 ft 364 kts 92°
2026-04-26 19:53 38.90195 -10.05128 17898 ft 358 kts 92°
2026-04-26 19:54 38.90074 -10.01961 17508 ft 352 kts 92°
2026-04-26 19:54 38.89954 -9.98864 17146 ft 346 kts 92°
2026-04-26 19:54 38.89836 -9.95849 16796 ft 340 kts 92°
2026-04-26 19:54 38.89719 -9.92873 16457 ft 334 kts 92°
2026-04-26 19:55 38.89607 -9.90048 16138 ft 329 kts 92°
2026-04-26 19:55 38.89490 -9.87095 15809 ft 324 kts 92°
2026-04-26 19:55 38.89377 -9.84242 15491 ft 320 kts 92°
2026-04-26 19:55 38.89263 -9.81391 15153 ft 316 kts 92°
2026-04-26 19:56 38.89151 -9.78620 14824 ft 313 kts 92°
2026-04-26 19:56 38.89039 -9.75840 14506 ft 311 kts 91°
2026-04-26 19:56 38.88927 -9.73076 14185 ft 309 kts 92°
2026-04-26 19:56 38.88815 -9.70337 13870 ft 306 kts 92°
2026-04-26 19:57 38.88704 -9.67619 13521 ft 303 kts 92°
2026-04-26 19:57 38.88593 -9.64940 13198 ft 299 kts 92°
2026-04-26 19:57 38.88482 -9.62293 12885 ft 295 kts 92°
2026-04-26 19:57 38.88318 -9.59685 12573 ft 292 kts 101°
2026-04-26 19:58 38.87478 -9.57348 12279 ft 290 kts 127°
2026-04-26 19:58 38.85940 -9.55690 12005 ft 290 kts 149°
2026-04-26 19:58 38.84031 -9.54880 11706 ft 291 kts 170°
2026-04-26 19:58 38.82014 -9.54796 11423 ft 289 kts 178°
2026-04-26 19:59 38.80004 -9.54859 11119 ft 287 kts 179°
2026-04-26 19:59 38.78017 -9.54936 10825 ft 284 kts 179°
2026-04-26 19:59 38.76047 -9.55007 10531 ft 282 kts 176°
2026-04-26 19:59 38.74088 -9.55066 10245 ft 279 kts 176°
2026-04-26 20:00 38.72158 -9.55121 9980 ft 277 kts 176°
2026-04-26 20:00 38.70266 -9.55167 9663 ft 274 kts 177°
2026-04-26 20:00 38.68362 -9.55210 9362 ft 272 kts 178°
2026-04-26 20:00 38.66483 -9.55254 9081 ft 269 kts 178°
2026-04-26 20:01 38.64626 -9.55294 8804 ft 266 kts 176°
2026-04-26 20:01 38.62781 -9.55333 8529 ft 263 kts 177°
2026-04-26 20:01 38.60960 -9.55372 8259 ft 261 kts 176°
2026-04-26 20:01 38.59169 -9.55389 8088 ft 252 kts 170°
2026-04-26 20:02 38.57481 -9.55007 8067 ft 243 kts 162°
2026-04-26 20:02 38.55829 -9.54538 8061 ft 244 kts 162°
2026-04-26 20:02 38.54162 -9.54094 8059 ft 245 kts 162°
2026-04-26 20:02 38.53053 -9.53807 8051 ft 246 kts 163°
2026-04-26 20:03 38.50820 -9.53233 8034 ft 248 kts 165°
2026-04-26 20:03 38.49207 -9.52558 8022 ft 241 kts 143°
2026-04-26 20:03 38.47837 -9.51343 8049 ft 240 kts 140°
2026-04-26 20:03 38.46454 -9.50141 8040 ft 241 kts 142°
2026-04-26 20:04 38.45056 -9.48945 8042 ft 242 kts 142°
2026-04-26 20:04 38.43657 -9.47753 8037 ft 242 kts 142°
2026-04-26 20:04 38.42267 -9.46554 8034 ft 240 kts 138°
2026-04-26 20:04 38.41342 -9.44889 7874 ft 229 kts 102°
2026-04-26 20:05 38.41376 -9.42892 7539 ft 229 kts 75°
2026-04-26 20:05 38.42048 -9.41046 7183 ft 233 kts 55°
2026-04-26 20:05 38.43184 -9.39597 6915 ft 234 kts 42°
2026-04-26 20:05 38.44465 -9.38311 6619 ft 234 kts 40°
2026-04-26 20:06 38.45778 -9.37034 6335 ft 234 kts 40°
2026-04-26 20:06 38.47054 -9.35791 6062 ft 233 kts 40°
2026-04-26 20:06 38.48331 -9.34540 5810 ft 230 kts 40°
2026-04-26 20:06 38.49598 -9.33291 5530 ft 230 kts 40°
2026-04-26 20:07 38.50865 -9.32036 5245 ft 229 kts 40°
2026-04-26 20:07 38.52115 -9.30795 4967 ft 228 kts 40°
2026-04-26 20:07 38.53360 -9.29555 4698 ft 227 kts 40°
2026-04-26 20:07 38.54607 -9.28312 4445 ft 225 kts 39°
2026-04-26 20:08 38.55833 -9.27087 4199 ft 222 kts 39°
2026-04-26 20:08 38.57051 -9.25869 3956 ft 220 kts 39°
2026-04-26 20:08 38.58245 -9.24676 3760 ft 213 kts 39°
2026-04-26 20:08 38.59434 -9.23612 3519 ft 205 kts 28°
2026-04-26 20:09 38.60709 -9.22904 3307 ft 194 kts 23°
2026-04-26 20:09 38.61933 -9.22273 3082 ft 184 kts 24°
2026-04-26 20:09 38.63085 -9.21665 3043 ft 176 kts 24°
2026-04-26 20:09 38.64202 -9.21068 2918 ft 174 kts 25°
2026-04-26 20:10 38.65320 -9.20468 2711 ft 174 kts 24°
2026-04-26 20:10 38.66413 -9.19881 2473 ft 163 kts 23°
2026-04-26 20:10 38.67413 -9.19345 2282 ft 148 kts 23°
2026-04-26 20:10 38.68323 -9.18857 2130 ft 139 kts 23°
2026-04-26 20:11 38.69206 -9.18383 1929 ft 135 kts 23°
2026-04-26 20:11 38.70076 -9.17916 1756 ft 137 kts 23°
2026-04-26 20:11 38.70946 -9.17449 1566 ft 134 kts 22°
2026-04-26 20:12 38.72723 -9.16497 1208 ft 140 kts 23°
2026-04-26 20:12 38.73613 -9.16018 1033 ft 139 kts 19°
2026-04-26 20:12 38.74528 -9.15527 824 ft 144 kts 22°
2026-04-26 20:12 38.75427 -9.15020 600 ft 141 kts 20°
2026-04-26 20:13 38.76343 -9.14547 434 ft 145 kts 20°
2026-04-26 20:13 38.77253 -9.14068 361 ft 134 kts 17°
2026-04-26 20:13 38.77774 -9.13784 363 ft 41 kts 23°
2026-04-26 20:13 38.77958 -9.13688 367 ft 20 kts 21°
2026-04-26 20:14 38.78095 -9.13617 365 ft 28 kts 23°
2026-04-26 20:14 38.78220 -9.13530 367 ft 4 kts 44°
2026-04-26 20:14 38.78232 -9.13495 364 ft 4 kts 96°
2026-04-26 20:14 38.78208 -9.13469 366 ft 5 kts 158°
2026-04-26 20:15 38.78147 -9.13450 362 ft 15 kts 167°
2026-04-26 20:15 38.78027 -9.13417 358 ft 20 kts 169°
2026-04-26 20:15 38.77899 -9.13384 349 ft 14 kts 168°
2026-04-26 20:15 38.77794 -9.13356 355 ft 17 kts 168°
2026-04-26 20:16 38.77665 -9.13322 334 ft 20 kts 174°
2026-04-26 20:16 38.77535 -9.13307 337 ft 18 kts 166°
2026-04-26 20:16 38.77451 -9.13285 336 ft 8 kts 168°
2026-04-26 20:16 38.77402 -9.13272 336 ft 7 kts 169°
2026-04-26 20:17 38.77353 -9.13256 335 ft 7 kts 169°
2026-04-26 20:17 38.77304 -9.13242 336 ft 7 kts 150°
2026-04-26 20:17 38.77293 -9.13185 334 ft 6 kts 77°
2026-04-26 20:17 38.77296 -9.13167 334 ft 2 kts 78°
2026-04-26 20:18 38.77297 -9.13164 335 ft 0 kts 78°